Regional Weather Roundup
Issued by NWS

Home | Current Version | Previous Version | Graphics & Text | Print | Product List | Glossary On
Versions: 1 2 3 4 5 6 7 8 9 10 11 12 13 14 15 16 17 18 19 20 21 22 23 24 25 26 27 28 29 30 31 32 33 34 35 36 37 38 39 40 41 42 43 44 45 46 47 48 49 50
263
ASUS43 KFSD 250202
RWRSD

WEATHER ROUNDUP FOR SOUTH DAKOTA
NATIONAL WEATHER SERVICE SIOUX FALLS SD
900 PM CDT SAT SEP 24 2016

NOTE: "FAIR" INDICATES FEW OR NO CLOUDS BELOW 12,000 FEET WITH NO
SIGNIFICANT WEATHER AND/OR OBSTRUCTIONS TO VISIBILITY.


SDZ001>005-009-010-012>017-250300-
NORTHWEST AND NORTH CENTRAL SOUTH DAKOTA

CITY           SKY/WX    TMP DP  RH WIND       PRES   REMARKS
BUFFALO          N/A     52  49  89 NW35G47   29.77R
FAITH            N/A     52  44  74 W28G36    29.85F
MOBRIDGE       CLEAR     60  46  59 SW13G29   29.80R
$$

SDZ012>016-024>037-041>051-057-063-072>074-250300-
SOUTHWEST AND SOUTH CENTRAL SOUTH DAKOTA

CITY           SKY/WX    TMP DP  RH WIND       PRES   REMARKS
RAPID CTY ARPT MOCLDY    53  37  54 W23G30    30.00R
PIERRE         CLEAR     59  42  53 W16G28    29.89R
CUSTER         LGT RAIN  40  36  86 W14G24    30.05R
ELLSWORTH AFB  CLOUDY    53  38  57 W12G25    29.99R
PHILIP         PTCLDY    54  40  59 W14       29.94R
PINE RIDGE     CLEAR     52  41  66 W14       30.07R
WINNER         FAIR      65  44  46 W8        29.94R
$$

SDZ004>011-016>023-039-040-250300-
NORTHEAST SOUTH DAKOTA

CITY           SKY/WX    TMP DP  RH WIND       PRES   REMARKS
ABERDEEN       CLEAR     63  47  55 S9        29.82R
WATERTOWN      MOCLDY    68  66  93 S10       29.88R
SISSETON         N/A     69  67  93 S13       29.84R
$$

SDZ017-020-022-023-036>040-048>070-250300-
SOUTHEAST SOUTH DAKOTA

CITY           SKY/WX    TMP DP  RH WIND       PRES   REMARKS
SIOUX FALLS    CLOUDY    71  68  90 S10       29.91R
HURON          CLEAR     67  52  58 S8        29.86R
CHAMBERLAIN    CLEAR     68  45  44 W13G21    29.92R
MITCHELL       CLEAR     67  56  67 S6        29.90R
YANKTON        CLOUDY    70  68  94 CALM      29.90R
$$

ABBREVIATIONS USED IN REMARKS
   TC - TEMPERATURE IN CELSIUS
  WCI - WIND CHILL INDEX
   HX - HEAT INDEX
  VSB - VISIBILITY





USA.gov is the U.S. government's official web portal to all federal, state and local government web resources and services.